CZ-2C R/B

Last updated on Thu Oct 30 2025 00:02:16 GMT+0000 (Coordinated Universal Time)

1 52794U 22058K 25302.10731767 .00035838 00000+0 70632-3 0 9995 2 52794 50.1914 270.6358 0050859 12.2552 347.9639 15.45404019189725
UTC large
Height (km)
Speed (km/s)
/
Latitude / Longitude
Inclination (degrees)
Orbital Period (minutes)
Azimuth
Elevation
Range (km)
Doppler Factor

Next 0 passes for location: London (51.5072 / 0.1276)

Sorry there are no passes over London.